Tracking 30922 objects as of 2-Jul-2025
HD Live streaming from Space Station
objects crossing your sky now

FENGYUN 1C DEB

Track FENGYUN 1C DEB now!
10-day predictions


NORAD ID: 31097
Int'l Code: 1999-025BGT
Perigee: 743.9 km
Apogee: 766.0 km
Inclination: 98.9 °
Period: 99.8 minutes
Semi major axis: 7125 km
RCS: 0.0109 m2 (small)
Launch date: May 10, 1999
Source: People's Republic of China (PRC)
Launch site: Taiyaun Space Center, China (TSC)

Note: This is SATELLITE DEBRIS
Your satellite tracking list
SPACE STATION
STS 117
Track 2 satellite(s)




NASA's NSSDC Master Catalog

Two Line Element Set (TLE):
1 31097U 99025BGT 25182.55209883  .00005481  00000-0  16391-2 0  9993
2 31097  98.8573 298.3839 0015508  52.7920  80.2169 14.43247385947016
Source of the keplerian elements: AFSPC